OSE125 LICA-LIRA

Flight info

Callsign OSE125
Flight time N/A
Altitude 12000
Route ARBUM DCT EVINO DCT POLIT DCT SOR DCT TEA DCT ALAXI
Aircraft DHC7/M-SDE2E3FGRY/S

Departure

Time N/A
Airport Lamezia Terme Sant'Eufemia International Airport (LICA)

Arrival

Time 2026-05-05 15:16
Airport Ciampino–G. B. Pastine International Airport (LIRA)
Time Latitude Longitude Altitude Speed Heading
2026-05-05 14:27 40.10569 14.87977 12114 ft 245 kts 316°
2026-05-05 14:27 40.11859 14.86517 12113 ft 249 kts 316°
2026-05-05 14:27 40.13181 14.85017 12110 ft 251 kts 316°
2026-05-05 14:28 40.14491 14.83530 12107 ft 252 kts 316°
2026-05-05 14:28 40.15817 14.82024 12109 ft 253 kts 316°
2026-05-05 14:28 40.17156 14.80510 12110 ft 256 kts 315°
2026-05-05 14:28 40.18506 14.78976 12113 ft 258 kts 316°
2026-05-05 14:29 40.19870 14.77430 12109 ft 261 kts 316°
2026-05-05 14:29 40.21249 14.75856 12108 ft 263 kts 316°
2026-05-05 14:29 40.22633 14.74287 12101 ft 265 kts 316°
2026-05-05 14:29 40.24030 14.72699 12105 ft 266 kts 316°
2026-05-05 14:30 40.25429 14.71104 12104 ft 267 kts 316°
2026-05-05 14:30 40.26819 14.69522 12102 ft 268 kts 316°
2026-05-05 14:30 40.28227 14.67920 12105 ft 268 kts 316°
2026-05-05 14:30 40.29634 14.66313 12106 ft 269 kts 316°
2026-05-05 14:31 40.31049 14.64702 12093 ft 269 kts 316°
2026-05-05 14:31 40.32457 14.63094 12100 ft 269 kts 316°
2026-05-05 14:31 40.33879 14.61471 12100 ft 269 kts 316°
2026-05-05 14:31 40.35282 14.59870 12101 ft 270 kts 316°
2026-05-05 14:32 40.36698 14.58251 12103 ft 270 kts 316°
2026-05-05 14:32 40.38115 14.56629 12100 ft 270 kts 316°
2026-05-05 14:32 40.39534 14.55007 12099 ft 271 kts 316°
2026-05-05 14:32 40.40950 14.53383 12099 ft 271 kts 316°
2026-05-05 14:33 40.42368 14.51757 12101 ft 271 kts 316°
2026-05-05 14:33 40.43774 14.50146 12104 ft 270 kts 316°
2026-05-05 14:33 40.45196 14.48515 12103 ft 271 kts 316°
2026-05-05 14:33 40.46599 14.46906 12105 ft 270 kts 316°
2026-05-05 14:34 40.48016 14.45276 12104 ft 271 kts 316°
2026-05-05 14:34 40.49437 14.43644 12106 ft 271 kts 316°
2026-05-05 14:34 40.50864 14.42002 12105 ft 271 kts 316°
2026-05-05 14:34 40.52280 14.40372 12106 ft 271 kts 316°
2026-05-05 14:35 40.53691 14.38750 12111 ft 271 kts 316°
2026-05-05 14:35 40.55095 14.37132 12102 ft 271 kts 316°
2026-05-05 14:35 40.56521 14.35490 12107 ft 271 kts 316°
2026-05-05 14:35 40.57940 14.33859 12108 ft 272 kts 316°
2026-05-05 14:36 40.59645 14.32748 12100 ft 278 kts 337°
2026-05-05 14:36 40.61447 14.31854 12117 ft 277 kts 335°
2026-05-05 14:36 40.63262 14.30957 12116 ft 277 kts 335°
2026-05-05 14:36 40.65063 14.30051 12110 ft 277 kts 334°
2026-05-05 14:37 40.66855 14.29148 12110 ft 278 kts 334°
2026-05-05 14:37 40.68670 14.28231 12113 ft 278 kts 335°
2026-05-05 14:37 40.70483 14.27317 12111 ft 278 kts 335°
2026-05-05 14:37 40.72268 14.26413 12108 ft 278 kts 334°
2026-05-05 14:38 40.74090 14.25487 12118 ft 278 kts 335°
2026-05-05 14:38 40.75886 14.24580 12120 ft 278 kts 334°
2026-05-05 14:38 40.77700 14.23658 12119 ft 279 kts 335°
2026-05-05 14:38 40.79510 14.22743 12116 ft 279 kts 334°
2026-05-05 14:39 40.81314 14.21824 12114 ft 279 kts 334°
2026-05-05 14:39 40.83133 14.20898 12118 ft 279 kts 335°
2026-05-05 14:39 40.84946 14.19975 12112 ft 280 kts 335°
2026-05-05 14:39 40.86774 14.19048 12116 ft 279 kts 335°
2026-05-05 14:40 40.88567 14.18134 12111 ft 279 kts 335°
2026-05-05 14:40 40.90395 14.17203 12117 ft 279 kts 335°
2026-05-05 14:40 40.92206 14.16284 12118 ft 279 kts 334°
2026-05-05 14:40 40.94015 14.15358 12120 ft 279 kts 334°
2026-05-05 14:41 40.95822 14.14439 12117 ft 279 kts 334°
2026-05-05 14:41 40.97628 14.13515 12118 ft 279 kts 334°
2026-05-05 14:41 40.99451 14.12584 12110 ft 280 kts 334°
2026-05-05 14:41 41.01269 14.11654 12117 ft 280 kts 334°
2026-05-05 14:42 41.03082 14.10726 12115 ft 280 kts 334°
2026-05-05 14:42 41.04909 14.09792 12120 ft 280 kts 334°
2026-05-05 14:42 41.06722 14.08864 12119 ft 280 kts 334°
2026-05-05 14:42 41.08538 14.07936 12117 ft 280 kts 334°
2026-05-05 14:43 41.10345 14.07006 12116 ft 280 kts 335°
2026-05-05 14:43 41.12159 14.06077 12114 ft 280 kts 334°
2026-05-05 14:43 41.13996 14.05133 12114 ft 280 kts 334°
2026-05-05 14:43 41.15815 14.04201 12114 ft 280 kts 335°
2026-05-05 14:44 41.17630 14.03268 12100 ft 280 kts 334°
2026-05-05 14:44 41.19434 14.02343 12105 ft 279 kts 334°
2026-05-05 14:44 41.21245 14.01409 12112 ft 279 kts 334°
2026-05-05 14:44 41.23060 14.00477 12106 ft 279 kts 334°
2026-05-05 14:45 41.24869 13.99543 12086 ft 279 kts 334°
2026-05-05 14:45 41.26661 13.98617 12095 ft 278 kts 334°
2026-05-05 14:45 41.28473 13.97684 12103 ft 278 kts 334°
2026-05-05 14:45 41.30138 13.96491 12068 ft 272 kts 314°
2026-05-05 14:46 41.31411 13.94642 12105 ft 269 kts 310°
2026-05-05 14:46 41.32681 13.92853 12078 ft 269 kts 309°
2026-05-05 14:46 41.33963 13.91035 12088 ft 268 kts 310°
2026-05-05 14:46 41.35250 13.89214 12101 ft 269 kts 310°
2026-05-05 14:47 41.36518 13.87422 12099 ft 269 kts 310°
2026-05-05 14:47 41.37808 13.85602 12088 ft 270 kts 310°
2026-05-05 14:47 41.39102 13.83770 12093 ft 270 kts 310°
2026-05-05 14:47 41.40390 13.81948 12090 ft 270 kts 310°
2026-05-05 14:48 41.41664 13.80144 12085 ft 270 kts 309°
2026-05-05 14:48 41.42952 13.78324 12069 ft 270 kts 310°
2026-05-05 14:48 41.44236 13.76506 12078 ft 269 kts 310°
2026-05-05 14:48 41.45514 13.74691 12103 ft 269 kts 310°
2026-05-05 14:49 41.46789 13.72878 12094 ft 270 kts 310°
2026-05-05 14:49 41.48078 13.71049 12077 ft 270 kts 310°
2026-05-05 14:49 41.49370 13.69216 12083 ft 270 kts 310°
2026-05-05 14:49 41.50653 13.67391 12094 ft 270 kts 310°
2026-05-05 14:50 41.51939 13.65564 12099 ft 270 kts 310°
2026-05-05 14:50 41.53209 13.63756 12101 ft 271 kts 310°
2026-05-05 14:50 41.54501 13.61916 12098 ft 271 kts 310°
2026-05-05 14:50 41.55791 13.60078 12088 ft 271 kts 309°
2026-05-05 14:51 41.57082 13.58237 12100 ft 271 kts 310°
2026-05-05 14:51 41.58356 13.56422 12095 ft 271 kts 310°
2026-05-05 14:51 41.59644 13.54580 12094 ft 271 kts 310°
2026-05-05 14:51 41.60929 13.52748 12092 ft 271 kts 310°
2026-05-05 14:52 41.62220 13.50898 12092 ft 271 kts 310°
2026-05-05 14:52 41.63497 13.49074 12097 ft 271 kts 310°
2026-05-05 14:52 41.64796 13.47217 12086 ft 269 kts 309°
2026-05-05 14:52 41.66042 13.45435 12056 ft 262 kts 309°
2026-05-05 14:53 41.67281 13.43656 11848 ft 262 kts 309°
2026-05-05 14:53 41.68520 13.41880 11649 ft 262 kts 309°
2026-05-05 14:53 41.69772 13.40083 11454 ft 262 kts 309°
2026-05-05 14:53 41.71011 13.38303 11258 ft 261 kts 310°
2026-05-05 14:54 41.72233 13.36546 11095 ft 260 kts 310°
2026-05-05 14:54 41.73459 13.34787 11081 ft 253 kts 309°
2026-05-05 14:54 41.74633 13.33096 11082 ft 246 kts 309°
2026-05-05 14:54 41.75774 13.31454 11082 ft 239 kts 309°
2026-05-05 14:55 41.76899 13.29828 11077 ft 233 kts 309°
2026-05-05 14:55 41.77991 13.28252 11078 ft 228 kts 309°
2026-05-05 14:55 41.79049 13.26722 11090 ft 224 kts 309°
2026-05-05 14:55 41.80109 13.25191 11085 ft 222 kts 309°
2026-05-05 14:56 41.81148 13.23687 11087 ft 219 kts 308°
2026-05-05 14:56 41.82182 13.22192 11084 ft 217 kts 309°
2026-05-05 14:56 41.83206 13.20711 11093 ft 215 kts 308°
2026-05-05 14:56 41.84219 13.19241 11084 ft 215 kts 308°
2026-05-05 14:57 41.85228 13.17779 11088 ft 214 kts 308°
2026-05-05 14:57 41.86239 13.16314 11091 ft 214 kts 308°
2026-05-05 14:57 41.87256 13.14836 11096 ft 218 kts 308°
2026-05-05 14:57 41.88299 13.13323 11088 ft 222 kts 308°
2026-05-05 14:58 41.89349 13.11792 11095 ft 225 kts 308°
2026-05-05 14:58 41.90419 13.10242 11089 ft 227 kts 309°
2026-05-05 14:58 41.91490 13.08686 11096 ft 229 kts 309°
2026-05-05 14:58 41.92573 13.07112 11086 ft 231 kts 309°
2026-05-05 14:59 41.93660 13.05529 11084 ft 231 kts 308°
2026-05-05 14:59 41.94755 13.03936 11093 ft 232 kts 309°
2026-05-05 14:59 41.95847 13.02343 11042 ft 234 kts 309°
2026-05-05 14:59 41.96968 13.00713 10919 ft 236 kts 309°
2026-05-05 15:00 41.98078 12.99089 10809 ft 238 kts 309°
2026-05-05 15:00 41.98834 12.97985 10725 ft 239 kts 309°
2026-05-05 15:00 42.00336 12.95795 10564 ft 241 kts 309°
2026-05-05 15:00 42.01468 12.94138 10434 ft 242 kts 309°
2026-05-05 15:01 42.02606 12.92471 10309 ft 242 kts 307°
2026-05-05 15:01 42.03271 12.90448 10173 ft 238 kts 278°
2026-05-05 15:01 42.03625 12.88292 10068 ft 238 kts 282°
2026-05-05 15:01 42.04004 12.86097 9960 ft 239 kts 282°
2026-05-05 15:02 42.04386 12.83939 9842 ft 240 kts 282°
2026-05-05 15:02 42.04774 12.81742 9715 ft 242 kts 282°
2026-05-05 15:02 42.05161 12.79549 9585 ft 244 kts 282°
2026-05-05 15:02 42.05555 12.77315 9469 ft 245 kts 282°
2026-05-05 15:03 42.05949 12.75076 9348 ft 246 kts 282°
2026-05-05 15:03 42.06340 12.72854 9229 ft 247 kts 281°
2026-05-05 15:03 42.06734 12.70604 9102 ft 248 kts 281°
2026-05-05 15:03 42.07130 12.68351 8981 ft 248 kts 281°
2026-05-05 15:04 42.07524 12.66087 8855 ft 249 kts 281°
2026-05-05 15:04 42.07922 12.63810 8731 ft 250 kts 281°
2026-05-05 15:04 42.08319 12.61544 8606 ft 250 kts 281°
2026-05-05 15:04 42.08712 12.59282 8483 ft 250 kts 281°
2026-05-05 15:05 42.09447 12.54724 8218 ft 249 kts 272°
2026-05-05 15:05 42.08951 12.52547 8057 ft 249 kts 236°
2026-05-05 15:05 42.07545 12.51208 7916 ft 254 kts 202°
2026-05-05 15:06 42.05864 12.50475 7804 ft 250 kts 204°
2026-05-05 15:06 42.04261 12.49706 7454 ft 241 kts 203°
2026-05-05 15:06 42.02718 12.48944 6988 ft 235 kts 203°
2026-05-05 15:06 42.01210 12.48205 6603 ft 224 kts 204°
2026-05-05 15:07 41.99778 12.47503 6234 ft 214 kts 204°
2026-05-05 15:07 41.98394 12.46971 5963 ft 208 kts 186°
2026-05-05 15:07 41.97050 12.47602 5801 ft 204 kts 154°
2026-05-05 15:07 41.95832 12.48473 5634 ft 192 kts 158°
2026-05-05 15:08 41.94680 12.49281 5454 ft 184 kts 156°
2026-05-05 15:08 41.93778 12.50560 4976 ft 202 kts 120°
2026-05-05 15:08 41.92961 12.52018 4602 ft 198 kts 133°
2026-05-05 15:08 41.92555 12.53784 4208 ft 208 kts 86°
2026-05-05 15:09 41.93204 12.55488 3835 ft 212 kts 43°
2026-05-05 15:09 41.94560 12.56172 3457 ft 213 kts 359°
2026-05-05 15:09 41.95857 12.55514 3421 ft 192 kts 326°
2026-05-05 15:09 41.96941 12.54520 3239 ft 184 kts 309°
2026-05-05 15:10 41.97359 12.53012 3052 ft 169 kts 262°
2026-05-05 15:10 41.97088 12.51535 2893 ft 160 kts 250°
2026-05-05 15:10 41.96788 12.50120 2715 ft 157 kts 249°
2026-05-05 15:10 41.96417 12.48840 2696 ft 134 kts 225°
2026-05-05 15:11 41.95655 12.48350 2799 ft 121 kts 178°
2026-05-05 15:11 41.94878 12.48803 2908 ft 131 kts 143°
2026-05-05 15:11 41.94117 12.49529 3018 ft 139 kts 150°
2026-05-05 15:11 41.93302 12.50186 3169 ft 133 kts 152°
2026-05-05 15:12 41.92444 12.50822 2974 ft 144 kts 154°
2026-05-05 15:12 41.91553 12.51457 2761 ft 144 kts 154°
2026-05-05 15:12 41.90678 12.52070 2551 ft 140 kts 153°
2026-05-05 15:12 41.89822 12.52667 2354 ft 136 kts 153°
2026-05-05 15:13 41.89000 12.53237 2158 ft 128 kts 154°
2026-05-05 15:13 41.88230 12.53772 1986 ft 122 kts 153°
2026-05-05 15:13 41.87496 12.54276 1830 ft 118 kts 154°
2026-05-05 15:13 41.86769 12.54783 1678 ft 117 kts 154°
2026-05-05 15:14 41.86046 12.55275 1524 ft 118 kts 153°
2026-05-05 15:14 41.85309 12.55790 1364 ft 119 kts 152°
2026-05-05 15:14 41.84569 12.56299 1205 ft 120 kts 153°
2026-05-05 15:14 41.83839 12.56801 1034 ft 114 kts 152°
2026-05-05 15:15 41.83155 12.57262 870 ft 110 kts 155°
2026-05-05 15:15 41.82478 12.57726 759 ft 105 kts 153°
2026-05-05 15:15 41.81831 12.58182 690 ft 106 kts 152°
2026-05-05 15:15 41.81148 12.58652 495 ft 109 kts 153°
2026-05-05 15:16 41.80510 12.59083 354 ft 93 kts 153°
2026-05-05 15:16 41.80197 12.59299 369 ft 9 kts 145°
2026-05-05 15:16 41.80190 12.59305 370 ft 1 kts 135°
2026-05-05 15:16 41.80195 12.59299 369 ft 1 kts 137°
2026-05-05 15:17 41.80179 12.59314 370 ft 3 kts 146°
2026-05-05 15:17 41.80158 12.59330 372 ft 4 kts 155°
2026-05-05 15:17 41.80124 12.59352 375 ft 6 kts 150°
2026-05-05 15:17 41.80081 12.59381 378 ft 8 kts 155°
2026-05-05 15:18 41.80015 12.59427 383 ft 12 kts 155°
2026-05-05 15:18 41.79922 12.59486 390 ft 16 kts 172°
2026-05-05 15:18 41.79829 12.59371 390 ft 21 kts 233°
2026-05-05 15:18 41.79699 12.59283 389 ft 21 kts 209°
2026-05-05 15:19 41.79629 12.59244 391 ft 6 kts 101°
2026-05-05 15:19 41.79630 12.59250 391 ft 0 kts 69°